FW7170 Weather Reports


time (UTC)temp
F
wind
direction
speed
knots
gust
knots
rain 1hr
in
rain 24hr
in
rain mn
in
humidity
%
barometer
mb
20260509135041 73 107 0.0 0.0 0.00 0.00 0.00 91 1013.2
20260509134537 73 104 0.0 0.0 0.00 0.00 0.00 90 1013.3
20260509134035 72 106 0.0 0.0 0.00 0.00 0.00 89 1013.3
20260509133532 73 96 0.9 0.9 0.00 0.00 0.00 89 1013.3
20260509133030 72 95 0.0 0.0 0.00 0.00 0.00 90 1013.2
20260509132528 72 90 0.0 0.0 0.00 0.00 0.00 91 1013.0
20260509132026 72 106 0.0 0.0 0.00 0.00 0.00 91 1013.3
20260509131522 72 98 0.0 0.0 0.00 0.00 0.00 91 1013.3
20260509131019 71 110 0.0 0.0 0.00 0.00 0.00 92 1013.7
20260509130514 71 110 0.0 0.0 0.00 0.00 0.00 92 1013.6
20260509130011 70 111 0.0 0.0 0.00 0.00 0.00 93 1013.7
20260509125508 70 109 0.0 0.0 0.00 0.00 0.00 94 1013.5
20260509125004 69 110 0.9 1.7 0.00 0.00 0.00 94 1013.5
20260509124501 69 100 0.0 0.9 0.00 0.00 0.00 94 1013.5
20260509123958 69 101 0.0 0.9 0.00 0.00 0.00 94 1013.6
20260509123456 68 104 0.0 0.0 0.00 0.00 0.00 95 1013.9
20260509122951 68 108 0.0 0.0 0.00 0.00 0.00 96 1013.7
20260509122448 67 114 0.0 0.0 0.00 0.00 0.00 96 1013.8
20260509121945 67 82 0.9 0.9 0.00 0.00 0.00 96 1013.4
20260509121442 67 110 0.0 0.9 0.00 0.00 0.00 96 1013.6
20260509120939 67 95 0.9 0.9 0.00 0.00 0.00 97 1013.7
20260509120438 67 97 0.0 0.0 0.00 0.00 0.00 98 1013.6
20260509115935 66 97 0.0 0.0 0.00 0.00 0.00 98 1013.7
20260509115432 66 95 0.9 0.9 0.00 0.00 0.00 98 1013.4
20260509114924 66 99 0.0 0.0 0.00 0.00 0.00 99 1013.5
20260509114422 66 99 0.0 0.0 0.00 0.00 0.00 99 1013.6
20260509113922 64 101 0.0 0.0 0.00 0.00 0.00 99 1013.5
20260509113419 64 101 0.0 0.0 0.00 0.00 0.00 99 1013.3
20260509112916 64 101 0.0 0.0 0.00 0.00 0.00 99 1013.4
20260509112413 63 101 0.0 0.0 0.00 0.00 0.00 99 1013.6
20260509111910 63 101 0.0 0.0 0.00 0.00 0.00 99 1013.3
20260509111406 63 101 0.0 0.0 0.00 0.00 0.00 99 1013.2
20260509110904 63 101 0.0 0.0 0.00 0.00 0.00 99 1013.1
20260509110359 62 101 0.0 0.0 0.00 0.00 0.00 99 1013.0
20260509105858 62 101 0.0 0.0 0.00 0.00 0.00 99 1013.2
20260509105356 62 101 0.0 0.0 0.00 0.00 0.00 99 1012.9
20260509104853 62 101 0.0 0.0 0.00 0.00 0.00 99 1012.8
20260509104349 62 101 0.0 0.0 0.00 0.00 0.00 99 1012.8
20260509103847 62 101 0.0 0.0 0.00 0.00 0.00 99 1012.7
20260509103344 62 101 0.0 0.0 0.00 0.00 0.00 99 1012.8
20260509102843 62 101 0.0 0.0 0.00 0.00 0.00 99 1012.6
20260509102340 62 101 0.0 0.0 0.00 0.00 0.00 99 1012.5
20260509101835 62 101 0.0 0.0 0.00 0.00 0.00 99 1012.6
20260509101332 62 101 0.0 0.0 0.00 0.00 0.00 99 1012.7
20260509100830 62 102 0.0 0.0 0.00 0.00 0.00 99 1012.6
20260509100327 62 102 0.0 0.0 0.00 0.00 0.00 99 1012.7
20260509095823 63 102 0.0 0.0 0.00 0.00 0.00 99 1012.4
20260509095320 63 102 0.0 0.0 0.00 0.00 0.00 99 1012.5
20260509094818 63 102 0.0 0.0 0.00 0.00 0.00 99 1012.7
20260509094314 63 102 0.0 0.0 0.00 0.00 0.00 99 1012.7
20260509093812 63 102 0.0 0.0 0.00 0.00 0.00 99 1012.7
20260509093309 63 102 0.0 0.0 0.00 0.00 0.00 99 1012.8
20260509092808 63 102 0.0 0.0 0.00 0.00 0.00 99 1012.7
20260509092306 63 102 0.0 0.0 0.00 0.00 0.00 99 1012.8
20260509091803 63 102 0.0 0.0 0.00 0.00 0.00 99 1012.8
20260509091259 63 102 0.0 0.0 0.00 0.00 0.00 99 1013.0
20260509090757 63 102 0.0 0.0 0.00 0.00 0.00 99 1013.0
20260509090254 63 102 0.0 0.0 0.00 0.00 0.00 99 1012.8
20260509085751 63 102 0.0 0.0 0.00 0.00 0.00 99 1012.7
20260509085248 63 97 0.0 0.0 0.00 0.00 0.00 99 1013.0
20260509084745 63 97 0.0 0.0 0.00 0.00 0.00 99 1013.1
20260509084241 63 93 0.0 0.9 0.00 0.00 0.00 99 1013.0
20260509083740 63 108 0.0 0.0 0.00 0.00 0.00 99 1012.7
20260509083236 63 111 0.9 0.9 0.00 0.00 0.00 99 1012.4
20260509082732 63 103 0.0 0.0 0.00 0.00 0.00 98 1012.7
20260509082229 63 106 0.9 0.9 0.00 0.00 0.00 98 1012.8
20260509081726 63 99 0.0 0.0 0.00 0.00 0.00 98 1013.3
20260509081224 63 97 0.0 0.0 0.00 0.00 0.00 98 1013.3
20260509080722 63 91 0.9 0.9 0.00 0.00 0.00 98 1013.6
20260509080219 63 104 0.0 0.0 0.00 0.00 0.00 98 1013.4
20260509075717 63 105 0.0 0.0 0.00 0.00 0.00 98 1013.2
20260509075214 64 107 0.0 0.0 0.00 0.00 0.00 98 1013.2
20260509074711 64 107 0.0 0.0 0.00 0.00 0.00 97 1013.2
20260509074209 64 108 0.0 0.0 0.00 0.00 0.00 97 1012.9
20260509073705 64 107 0.0 0.0 0.00 0.00 0.00 97 1013.2
20260509073201 64 109 0.0 0.9 0.00 0.00 0.00 97 1013.1
20260509072658 64 98 0.0 0.0 0.00 0.00 0.00 97 1013.2
20260509072155 64 97 0.0 0.0 0.00 0.00 0.00 97 1013.0
20260509071651 64 97 0.0 0.0 0.00 0.00 0.00 97 1013.0
20260509071149 64 97 0.0 0.0 0.00 0.00 0.00 97 1012.8
20260509070646 64 97 0.0 0.0 0.00 0.00 0.00 96 1013.3
20260509070142 64 97 0.0 0.0 0.00 0.00 0.00 96 1013.0
20260509065638 64 97 0.0 0.0 0.00 0.00 0.00 96 1013.3
20260509065134 64 97 0.0 0.0 0.00 0.00 0.00 96 1013.4
20260509064631 64 97 0.0 0.0 0.00 0.00 0.00 96 1013.6
20260509064129 64 98 0.0 0.0 0.00 0.00 0.00 96 1013.3
20260509063626 64 98 0.0 0.0 0.00 0.00 0.00 96 1013.2
20260509063122 64 97 0.9 0.9 0.00 0.00 0.00 96 1013.4
20260509062620 64 96 0.9 0.9 0.00 0.00 0.00 95 1013.7
20260509062116 64 97 0.0 0.0 0.00 0.00 0.00 95 1014.4
20260509061613 64 97 0.0 0.0 0.00 0.00 0.00 95 1014.3
20260509061111 64 93 0.0 0.0 0.00 0.00 0.00 95 1014.3
20260509060609 64 90 0.9 0.9 0.00 0.00 0.00 95 1014.3
20260509060104 64 104 0.9 0.9 0.00 0.00 0.00 95 1014.0
20260509055600 63 91 0.0 0.9 0.00 0.00 0.00 95 1013.6
20260509055056 64 109 0.0 0.9 0.00 0.00 0.00 95 1014.1
20260509054553 64 109 0.9 1.7 0.00 0.00 0.00 95 1014.0
20260509054051 64 96 0.0 0.0 0.00 0.00 0.00 94 1014.5
20260509053549 64 97 0.0 0.0 0.00 0.00 0.00 94 1014.4
20260509053045 64 97 0.0 0.0 0.00 0.00 0.00 94 1014.1
20260509052543 64 86 0.9 0.9 0.00 0.00 0.00 94 1013.9
20260509052041 64 94 0.9 0.9 0.00 0.00 0.00 94 1014.1
20260509051539 64 98 0.9 0.9 0.00 0.00 0.00 94 1014.8
20260509051035 64 98 0.0 0.0 0.00 0.00 0.00 94 1014.7
20260509050533 64 102 0.9 0.9 0.00 0.00 0.00 93 1014.7
20260509050029 64 97 0.9 0.9 0.00 0.00 0.00 93 1014.9
20260509045526 64 108 0.0 0.0 0.00 0.00 0.00 93 1014.8
20260509045023 64 108 0.0 0.0 0.00 0.00 0.00 93 1015.2
20260509044521 64 97 0.0 0.0 0.00 0.00 0.00 92 1015.3
20260509044018 64 96 0.0 0.0 0.00 0.00 0.00 92 1015.6
20260509043514 64 93 0.0 0.0 0.00 0.00 0.00 92 1015.6
20260509043010 64 92 0.0 0.0 0.00 0.00 0.00 92 1015.7
20260509042506 64 94 0.0 0.0 0.00 0.00 0.00 92 1015.4
20260509042003 64 95 0.9 0.9 0.00 0.00 0.00 92 1015.0
20260509041459 64 99 0.0 0.0 0.00 0.00 0.00 92 1015.2
20260509040957 64 100 0.0 0.0 0.00 0.00 0.00 91 1015.6
20260509040455 64 105 0.0 0.0 0.00 0.00 0.00 91 1015.6
20260509035951 64 109 0.0 0.0 0.00 0.00 0.00 91 1015.7
20260509035448 64 100 0.0 0.0 0.00 0.00 0.00 91 1015.5
20260509034945 64 100 0.0 0.0 0.00 0.00 0.00 90 1016.0
20260509034443 64 100 0.0 0.0 0.00 0.00 0.00 90 1015.9
20260509033940 64 100 0.0 0.0 0.00 0.00 0.00 90 1015.8
20260509033437 64 100 0.0 0.0 0.00 0.00 0.00 90 1015.7
20260509032933 64 100 0.0 0.0 0.00 0.00 0.00 90 1016.1
20260509032431 64 101 0.0 0.0 0.00 0.00 0.00 90 1015.9
20260509031929 64 101 0.0 0.0 0.00 0.00 0.00 90 1016.1
20260509031426 64 101 0.0 0.0 0.00 0.00 0.00 90 1015.8
20260509030923 64 101 0.0 0.0 0.00 0.00 0.00 90 1016.2
20260509030421 64 101 0.0 0.0 0.00 0.00 0.00 89 1016.1
20260509025918 64 101 0.0 0.0 0.00 0.00 0.00 89 1016.1
20260509025414 64 101 0.0 0.0 0.00 0.00 0.00 89 1016.1
20260509024909 65 96 0.0 0.0 0.00 0.00 0.00 88 1015.9
20260509024405 65 92 0.0 0.0 0.00 0.00 0.00 88 1015.9
20260509023902 64 97 0.0 0.0 0.00 0.00 0.00 88 1015.6
20260509023400 64 95 0.0 0.0 0.00 0.00 0.00 88 1015.6
20260509022856 64 96 0.0 0.0 0.00 0.00 0.00 88 1015.8
20260509022353 65 96 0.0 0.0 0.00 0.00 0.00 88 1015.8
20260509021850 65 96 0.0 0.0 0.00 0.00 0.00 88 1015.8
20260509021347 64 96 0.0 0.0 0.00 0.00 0.00 88 1015.7
20260509020845 64 98 0.0 0.0 0.00 0.00 0.00 89 1015.6
20260509020343 64 99 0.0 0.0 0.00 0.00 0.00 88 1015.5
20260509015840 64 98 0.0 0.0 0.00 0.00 0.00 88 1015.8
20260509015338 65 99 0.0 0.0 0.00 0.00 0.00 88 1015.8
20260509014834 65 99 0.0 0.0 0.00 0.00 0.00 88 1015.7
20260509014326 65 98 0.0 0.0 0.00 0.00 0.00 87 1015.7
20260509013822 65 98 0.0 0.0 0.00 0.00 0.00 87 1015.6
20260509013319 64 98 0.0 0.0 0.00 0.00 0.00 88 1015.5
20260509012815 64 103 0.0 0.0 0.00 0.00 0.00 88 1015.7
20260509012312 64 103 0.0 0.0 0.00 0.00 0.00 88 1015.8
20260509011809 65 104 0.0 0.0 0.00 0.00 0.00 88 1015.7
20260509011306 65 107 0.0 0.0 0.00 0.00 0.00 88 1015.5
20260509010804 64 102 0.0 0.0 0.00 0.00 0.00 88 1015.6
20260509010300 65 103 0.0 0.0 0.00 0.00 0.00 87 1015.6
20260509005752 65 102 0.0 0.0 0.00 0.00 0.00 87 1015.4
20260509005250 65 110 0.0 0.0 0.00 0.00 0.00 87 1015.5
20260509004749 65 108 0.0 0.0 0.00 0.00 0.00 86 1015.3
20260509004246 65 95 0.0 0.0 0.00 0.00 0.00 86 1015.4
20260509003745 65 94 0.0 0.0 0.00 0.00 0.00 85 1015.4
20260509003242 65 97 0.0 0.0 0.00 0.00 0.00 85 1015.2
20260509002739 65 97 0.0 0.0 0.00 0.00 0.00 84 1015.1
20260509002237 65 100 1.7 1.7 0.00 0.00 0.00 84 1015.1
20260509001734 65 99 0.0 0.0 0.00 0.00 0.00 85 1014.9
20260509001230 65 106 0.9 0.9 0.00 0.00 0.00 84 1015.0
20260509000728 66 101 0.0 0.0 0.00 0.00 0.00 84 1015.3
20260509000226 66 100 0.0 0.9 0.00 0.00 0.00 83 1015.0
20260508235722 66 102 0.9 0.9 0.00 0.00 0.00 83 1014.9
20260508235218 66 108 0.9 0.9 0.00 0.00 0.00 82 1014.8
20260508234715 66 113 1.7 1.7 0.00 0.00 0.00 82 1014.8
20260508234211 66 89 1.7 2.6 0.00 0.00 0.00 81 1014.9
20260508233706 66 90 0.9 0.9 0.00 0.00 0.00 81 1015.2
20260508233203 66 94 0.9 1.7 0.00 0.00 0.00 81 1014.9
20260508232700 66 90 2.6 2.6 0.00 0.00 0.00 80 1014.5
20260508232156 66 103 0.9 1.7 0.00 0.00 0.00 80 1015.0
20260508231655 67 104 0.9 0.9 0.00 0.00 0.00 79 1014.9
20260508231151 67 106 0.0 0.0 0.00 0.00 0.00 79 1015.0
20260508230648 67 123 1.7 1.7 0.00 0.00 0.00 79 1015.1
20260508230144 67 96 0.9 0.9 0.00 0.00 0.00 78 1015.0
20260508225643 67 94 0.0 0.0 0.00 0.00 0.00 78 1015.2
20260508225138 67 103 0.9 0.9 0.00 0.00 0.00 77 1014.9
20260508224636 67 86 2.6 2.6 0.00 0.00 0.00 76 1014.8
20260508224134 67 66 2.6 2.6 0.00 0.00 0.00 76 1014.5
20260508223631 67 99 1.7 1.7 0.00 0.00 0.00 75 1014.9
20260508223128 67 123 1.7 2.6 0.00 0.00 0.00 75 1014.9
20260508222625 67 112 2.6 4.3 0.00 0.00 0.00 74 1014.7
20260508222122 67 60 1.7 2.6 0.00 0.00 0.00 75 1014.7
20260508221618 68 114 0.9 0.9 0.00 0.00 0.00 76 1014.8
20260508221114 68 106 0.9 0.9 0.00 0.00 0.00 76 1014.9
20260508220611 68 105 0.9 1.7 0.00 0.00 0.00 75 1014.9
20260508220108 68 102 1.7 1.7 0.00 0.00 0.00 75 1014.9
20260508215605 68 108 0.9 0.9 0.00 0.00 0.00 75 1015.1
20260508215101 68 56 1.7 2.6 0.00 0.00 0.00 74 1014.9
20260508214559 68 97 0.9 0.9 0.00 0.00 0.00 73 1014.8
20260508214055 68 100 2.6 2.6 0.00 0.00 0.00 72 1014.6
20260508213552 68 115 3.5 5.2 0.00 0.00 0.00 72 1014.8
20260508213048 69 91 1.7 1.7 0.00 0.00 0.00 71 1014.8
20260508212545 69 106 0.9 1.7 0.00 0.00 0.00 71 1015.0
20260508212041 70 86 2.6 4.3 0.00 0.00 0.00 70 1014.9
20260508211537 69 128 1.7 1.7 0.00 0.00 0.00 74 1015.0
20260508211033 69 47 0.9 1.7 0.00 0.00 0.00 73 1015.1
20260508210530 69 107 0.0 0.9 0.00 0.00 0.00 70 1015.0
20260508210028 70 77 2.6 2.6 0.00 0.00 0.00 74 1014.9
20260508205524 69 134 4.3 5.2 0.00 0.00 0.00 71 1014.6
20260508205020 69 108 2.6 4.3 0.00 0.00 0.00 72 1014.5
20260508204518 69 69 3.5 4.3 0.00 0.00 0.00 71 1014.6
20260508204014 69 126 2.6 4.3 0.00 0.00 0.00 72 1015.0
20260508203510 69 121 1.7 2.6 0.00 0.00 0.00 72 1014.8
20260508203006 69 94 4.3 6.1 0.00 0.00 0.00 71 1015.0
20260508202503 69 114 4.3 7.0 0.00 0.00 0.00 70 1014.7
20260508202000 70 101 1.7 1.7 0.00 0.00 0.00 71 1014.6
20260508201456 71 82 2.6 5.2 0.00 0.00 0.00 68 1014.8
20260508200953 71 89 2.6 2.6 0.00 0.00 0.00 69 1015.1
20260508200450 70 126 7.0 9.6 0.00 0.00 0.00 71 1014.9
20260508195944 71 108 6.1 8.7 0.00 0.00 0.00 69 1015.1
20260508195443 72 115 0.9 0.9 0.00 0.00 0.00 71 1015.3
20260508194938 74 109 3.5 6.1 0.00 0.00 0.00 66 1015.2
20260508194436 73 115 5.2 6.1 0.00 0.00 0.00 67 1015.5
20260508193933 73 157 1.7 1.7 0.00 0.00 0.00 68 1015.2
20260508193430 73 20 2.6 4.3 0.00 0.00 0.00 67 1015.3
20260508192926 73 98 3.5 5.2 0.00 0.00 0.00 66 1015.0
20260508192423 73 107 1.7 1.7 0.00 0.00 0.00 67 1015.1
20260508191920 75 119 1.7 1.7 0.00 0.00 0.00 65 1015.1
20260508191417 76 136 5.2 7.0 0.00 0.00 0.00 63 1014.9
20260508190914 76 115 2.6 4.3 0.00 0.00 0.00 63 1015.1
20260508190411 76 105 1.7 1.7 0.00 0.00 0.00 63 1014.9
20260508185907 76 97 3.5 4.3 0.00 0.00 0.00 59 1015.2
20260508185405 76 93 3.5 5.2 0.00 0.00 0.00 59 1015.2
20260508184902 77 95 1.7 1.7 0.00 0.00 0.00 63 1015.1
20260508184359 77 63 2.6 2.6 0.00 0.00 0.00 53 1015.1
20260508183855 78 77 0.9 1.7 0.00 0.00 0.00 54 1015.5
20260508183352 78 49 1.7 1.7 0.00 0.00 0.00 54 1015.3
20260508182848 76 59 0.9 1.7 0.00 0.00 0.00 59 1015.6
20260508182345 77 104 1.7 2.6 0.00 0.00 0.00 55 1015.5
20260508181840 74 103 0.9 0.9 0.00 0.00 0.00 62 1015.7
20260508181337 75 327 2.6 2.6 0.00 0.00 0.00 56 1015.6
20260508180834 77 82 0.9 1.7 0.00 0.00 0.00 55 1015.6
20260508180331 76 61 0.0 0.0 0.00 0.00 0.00 58 1015.8
20260508175827 76 109 2.6 2.6 0.00 0.00 0.00 54 1015.9
20260508175324 75 71 0.9 0.9 0.00 0.00 0.00 61 1016.1
20260508174823 75 103 0.0 0.0 0.00 0.00 0.00 57 1015.9
20260508174320 74 93 0.9 0.9 0.00 0.00 0.00 58 1016.0
20260508173816 73 126 1.7 1.7 0.00 0.00 0.00 59 1015.9
20260508173313 75 287 3.5 4.3 0.00 0.00 0.00 57 1016.1
20260508172808 74 93 0.0 0.0 0.00 0.00 0.00 58 1016.2
20260508172307 76 171 2.6 2.6 0.00 0.00 0.00 53 1016.3
20260508171802 75 89 0.9 0.9 0.00 0.00 0.00 57 1016.3
20260508171258 75 84 1.7 2.6 0.00 0.00 0.00 57 1016.5
20260508170755 75 44 1.7 2.6 0.00 0.00 0.00 54 1016.4
20260508170254 73 286 3.5 4.3 0.00 0.00 0.00 61 1016.6
20260508165750 75 65 0.9 0.9 0.00 0.00 0.00 58 1016.4
20260508165247 74 108 1.7 1.7 0.00 0.00 0.00 56 1016.5
20260508164737 74 102 0.0 0.9 0.00 0.00 0.00 58 1016.4
20260508164234 72 132 0.9 0.9 0.00 0.00 0.00 57 1016.7
20260508163732 73 105 0.9 1.7 0.00 0.00 0.00 59 1016.7
20260508163230 73 164 4.3 5.2 0.00 0.00 0.00 55 1016.9
20260508162725 74 90 0.0 0.9 0.00 0.00 0.00 55 1017.1
20260508162222 74 89 1.7 2.6 0.00 0.00 0.00 55 1017.1
20260508161719 72 86 2.6 4.3 0.00 0.00 0.00 56 1017.1
20260508161217 71 50 1.7 1.7 0.00 0.00 0.00 57 1017.3
20260508160714 72 105 1.7 4.3 0.00 0.00 0.00 56 1017.3
20260508160212 72 113 0.9 0.9 0.00 0.00 0.00 55 1017.3
20260508155709 72 89 3.5 4.3 0.00 0.00 0.00 56 1017.4
20260508155206 71 82 0.9 1.7 0.00 0.00 0.00 59 1017.5
20260508154703 71 105 1.7 1.7 0.00 0.00 0.00 57 1017.8
20260508154200 71 75 2.6 4.3 0.00 0.00 0.00 60 1017.7
20260508153656 73 77 2.6 2.6 0.00 0.00 0.00 57 1017.7
20260508153153 71 90 0.9 0.9 0.00 0.00 0.00 64 1017.7
20260508152650 72 87 0.9 1.7 0.00 0.00 0.00 60 1017.6
20260508152146 71 86 0.9 0.9 0.00 0.00 0.00 63 1017.7
20260508151642 71 65 4.3 7.8 0.00 0.00 0.00 57 1017.9
20260508151139 72 160 2.6 2.6 0.00 0.00 0.00 59 1017.7
20260508150636 71 50 1.7 1.7 0.00 0.00 0.00 59 1017.6
20260508150133 71 104 2.6 2.6 0.00 0.00 0.00 58 1017.8
20260508145629 71 60 2.6 4.3 0.00 0.00 0.00 61 1017.7
20260508145125 70 114 0.9 0.9 0.00 0.00 0.00 63 1017.7
20260508144623 70 156 1.7 1.7 0.00 0.00 0.00 62 1017.8
20260508144120 70 78 0.9 0.9 0.00 0.00 0.00 63 1017.6
20260508143618 69 63 1.7 1.7 0.00 0.00 0.00 63 1017.5
20260508143114 70 127 0.9 1.7 0.00 0.00 0.00 65 1017.5
20260508142611 69 90 0.9 1.7 0.00 0.00 0.00 64 1017.4
20260508142108 69 144 2.6 5.2 0.00 0.00 0.00 66 1017.6
20260508141604 69 95 0.9 0.9 0.00 0.00 0.00 67 1017.4
20260508141102 68 117 0.9 0.9 0.00 0.00 0.00 68 1017.6
20260508140559 68 53 0.9 1.7 0.00 0.00 0.00 71 1017.4
20260508140055 68 79 0.9 0.9 0.00 0.00 0.00 71 1017.1
20260508135551 68 88 1.7 2.6 0.00 0.00 0.00 69 1017.2